Weather History for Subic Bay, Philippines

Change the Weather History Date:

Thursday, February 13, 2014

  Actual Average Record
Temperature  
Mean Temperature 80 °F -  
Max Temperature 89 °F 87 °F 91 °F (2001)
Min Temperature 71 °F 72 °F 68 °F (2005)
Cooling Degree Days 15    
Growing Degree Days 30 (Base 50)    
Moisture  
Dew Point 64 °F    
Average Humidity 59    
Maximum Humidity 73    
Minimum Humidity 37    
Precipitation  
Precipitation 0.00 in - - ()
Sea Level Pressure  
Sea Level Pressure 29.90 in    
Wind  
Wind Speed 7 mph ()    
Max Wind Speed 16 mph    
Max Gust Speed -    
Visibility 7.7 miles    
Events      
Averages and records for this station are not official NWS values.
T = Trace of Precipitation, MM = Missing Value Source: Averaged Metar Reports

Daily Weather History Graph

Daily Weather History Graph

Search for Another Location

Airport:

Trip Planner

Search our weather history database for the weather conditions in past years. The results will help you decide how hot, cold, wet, or windy it might be!

Date:

Astronomy

Feb. 13, 2014 Rise Set
Actual Time 6:24 AM PHT 6:02 PM PHT
Civil Twilight 6:02 AM PHT 6:24 PM PHT
Nautical Twilight 5:36 AM PHT 6:49 PM PHT
Astronomical Twilight 5:11 AM PHT 7:14 PM PHT
Moon 4:41 PM PHT (2/13) 4:50 AM PHT (2/13)
Length of Visible Light 12h 22m
Length of Day
11h 38m
Waxing Gibbous, 97% of the Moon is Illuminated
Feb 13
Waxing Gibbous
Feb 15
Full
Feb 23
Last Quarter
Mar 1
New
Mar 8
First Quarter

Hourly Weather History & Observations

Time (PHT) Temp. Heat Index Dew Point Humidity Pressure Visibility Wind Dir Wind Speed Gust Speed Precip Events Conditions
2:00 AM 75 °F - 65 °F 63% 29.89 in 11 mi ENE 4.5 mph - -   Haze
2:00 AM 75.2 °F - 64.4 °F 69% 29.89 in 6.2 mi ENE 5.8 mph - N/A   Mostly Cloudy
5:00 AM 73 °F - 63 °F 64% 29.90 in 11 mi NE 4.5 mph - -   Haze
5:00 AM 73.4 °F - 62.6 °F 69% 29.89 in 6.2 mi NE 5.8 mph - N/A   Partly Cloudy
6:00 AM 71.6 °F - 62.6 °F 73% 29.92 in 6.2 mi ENE 6.9 mph - N/A   Partly Cloudy
7:00 AM 73.4 °F - 62.6 °F 69% 29.95 in 6.2 mi NE 5.8 mph - N/A   Mostly Cloudy
8:00 AM 75 °F - 63 °F 57% 29.96 in 12 mi ENE 8.9 mph - -   Haze
8:00 AM 75.2 °F - 62.6 °F 65% 29.95 in 6.2 mi ENE 8.1 mph - N/A   Mostly Cloudy
9:00 AM 78.8 °F - 62.6 °F 57% 29.95 in 6.2 mi East 11.5 mph - N/A   Mostly Cloudy
10:00 AM 78.8 °F - 62.6 °F 57% 29.98 in 6.2 mi East 12.7 mph - N/A   Mostly Cloudy
11:00 AM 83 °F - 61 °F 37% 29.96 in 12 mi East 15.7 mph - -   Haze
11:00 AM 82.4 °F 82.9 °F 60.8 °F 48% 29.95 in 6.2 mi East 16.1 mph - N/A   Mostly Cloudy
12:00 PM 84.2 °F 85.0 °F 62.6 °F 48% 29.92 in 6.2 mi East 11.5 mph - N/A   Mostly Cloudy
1:00 PM 87.8 °F 89.4 °F 64.4 °F 46% 29.89 in 6.2 mi East 11.5 mph - N/A   Mostly Cloudy
2:00 PM 89 °F - 67 °F 38% 29.85 in 11 mi ENE 6.7 mph - -   Haze
2:00 PM 87.8 °F 90.4 °F 66.2 °F 49% 29.83 in 6.2 mi ENE 5.8 mph - N/A   Mostly Cloudy
3:00 PM 84.2 °F 88.4 °F 69.8 °F 62% 29.83 in 6.2 mi SW 13.8 mph - N/A   Mostly Cloudy
4:00 PM 84.2 °F 86.6 °F 66.2 °F 55% 29.83 in 6.2 mi West 10.4 mph - N/A   Mostly Cloudy
5:00 PM 83 °F - 67 °F 50% 29.85 in 12 mi SW 8.9 mph - -   Haze
5:00 PM 82.4 °F 85.4 °F 68.0 °F 62% 29.83 in 6.2 mi SW 8.1 mph - N/A   Mostly Cloudy
6:00 PM 80.6 °F 82.7 °F 66.2 °F 61% 29.86 in 6.2 mi South 4.6 mph - N/A   Mostly Cloudy
7:00 PM 77.0 °F - 66.2 °F 69% 29.89 in 6.2 mi Variable 3.5 mph - N/A   Mostly Cloudy
8:00 PM 77 °F - 64 °F 57% 29.91 in 11 mi ENE 4.5 mph - -   Haze
8:00 PM 77.0 °F - 64.4 °F 65% 29.89 in 6.2 mi ENE 3.5 mph - N/A   Partly Cloudy
9:00 PM 77.0 °F - 66.2 °F 69% 29.92 in 6.2 mi NE 1.2 mph - N/A   Mostly Cloudy
11:00 PM 75 °F - 65 °F 63% 29.95 in 11 mi East 2.2 mph - -   Haze
11:00 PM 75.2 °F - 64.4 °F 69% 29.95 in 6.2 mi Variable 2.3 mph - N/A   Mostly Cloudy